TimeCST,TemperatureF,Dew PointF,Humidity,Sea Level PressureIn,VisibilityMPH,Wind Direction,Wind SpeedMPH,Gust SpeedMPH,PrecipitationIn,Events,Conditions,WindDirDegrees,DateUTC
12:15 AM,17.2,6.1,62,30.16,10.0,North,6.9,-,N/A,,Clear,350,2014-01-22 06:15:00
12:35 AM,16.7,6.1,63,30.15,10.0,North,5.8,-,N/A,,Clear,360,2014-01-22 06:35:00
12:55 AM,16.5,6.3,64,30.15,10.0,North,5.8,-,N/A,,Clear,360,2014-01-22 06:55:00
1:15 AM,16.2,5.9,64,30.15,10.0,North,3.5,-,N/A,,Clear,350,2014-01-22 07:15:00
1:35 AM,15.8,6.1,66,30.15,10.0,North,4.6,-,N/A,,Clear,360,2014-01-22 07:35:00
1:55 AM,15.6,6.6,68,30.15,10.0,North,4.6,-,N/A,,Clear,360,2014-01-22 07:55:00
2:15 AM,15.3,6.8,69,30.14,10.0,North,8.1,-,N/A,,Clear,350,2014-01-22 08:15:00
2:35 AM,14.9,7.0,71,30.15,10.0,North,4.6,-,N/A,,Clear,350,2014-01-22 08:35:00
2:55 AM,14.7,6.8,71,30.14,10.0,North,5.8,-,N/A,,Clear,350,2014-01-22 08:55:00
3:15 AM,14.5,6.8,71,30.16,10.0,North,3.5,-,N/A,,Clear,350,2014-01-22 09:15:00
3:55 AM,14.7,6.8,71,30.16,10.0,North,6.9,-,N/A,,Scattered Clouds,350,2014-01-22 09:55:00
4:15 AM,14.9,7.0,71,30.16,10.0,North,5.8,-,N/A,,Scattered Clouds,10,2014-01-22 10:15:00
4:35 AM,14.9,6.8,70,30.18,10.0,North,5.8,-,N/A,,Scattered Clouds,350,2014-01-22 10:35:00
4:55 AM,14.5,6.6,71,30.18,10.0,North,4.6,-,N/A,,Scattered Clouds,360,2014-01-22 10:55:00
5:15 AM,14.0,6.4,72,30.18,10.0,North,4.6,-,N/A,,Clear,10,2014-01-22 11:15:00
5:35 AM,13.5,6.4,74,30.17,10.0,North,4.6,-,N/A,,Clear,10,2014-01-22 11:35:00
5:55 AM,13.1,6.4,75,30.18,10.0,Calm,Calm,-,N/A,,Clear,0,2014-01-22 11:55:00
6:15 AM,12.7,6.6,77,30.17,10.0,Calm,Calm,-,N/A,,Clear,0,2014-01-22 12:15:00
6:35 AM,12.7,6.8,77,30.18,10.0,Calm,Calm,-,N/A,,Clear,0,2014-01-22 12:35:00
6:55 AM,12.4,7.2,80,30.18,10.0,Calm,Calm,-,N/A,,Clear,0,2014-01-22 12:55:00
7:15 AM,12.0,7.7,83,30.18,10.0,Calm,Calm,-,N/A,,Clear,0,2014-01-22 13:15:00
7:35 AM,13.5,7.7,78,30.18,10.0,Calm,Calm,-,N/A,,Clear,0,2014-01-22 13:35:00
7:55 AM,14.9,7.5,73,30.19,10.0,NNW,3.5,-,N/A,,Clear,340,2014-01-22 13:55:00
8:15 AM,16.0,7.3,69,30.20,10.0,North,3.5,-,N/A,,Clear,10,2014-01-22 14:15:00
8:35 AM,16.5,6.1,64,30.19,10.0,Calm,Calm,-,N/A,,Clear,0,2014-01-22 14:35:00
8:55 AM,17.6,6.1,61,30.20,10.0,NE,4.6,-,N/A,,Clear,40,2014-01-22 14:55:00
9:15 AM,19.0,6.3,58,30.20,10.0,Calm,Calm,-,N/A,,Clear,0,2014-01-22 15:15:00
9:35 AM,20.8,6.3,53,30.20,10.0,Calm,Calm,-,N/A,,Clear,0,2014-01-22 15:35:00
9:55 AM,22.1,6.1,50,30.20,10.0,Calm,Calm,-,N/A,,Clear,0,2014-01-22 15:55:00
10:15 AM,23.0,5.7,48,30.20,10.0,Calm,Calm,-,N/A,,Clear,0,2014-01-22 16:15:00
10:35 AM,23.5,4.8,45,30.20,10.0,Calm,Calm,-,N/A,,Clear,0,2014-01-22 16:35:00
10:55 AM,25.0,5.5,44,30.18,10.0,Calm,Calm,-,N/A,,Clear,0,2014-01-22 16:55:00
11:15 AM,26.4,4.6,39,30.16,10.0,SW,4.6,-,N/A,,Clear,220,2014-01-22 17:15:00
11:35 AM,27.7,3.6,36,30.16,10.0,WSW,5.8,-,N/A,,Clear,240,2014-01-22 17:35:00
11:55 AM,29.5,4.3,34,30.14,10.0,SW,5.8,-,N/A,,Clear,220,2014-01-22 17:55:00
12:15 PM,30.6,4.6,33,30.13,10.0,WNW,5.8,-,N/A,,Clear,290,2014-01-22 18:15:00
12:35 PM,31.6,3.2,30,30.11,10.0,WSW,3.5,-,N/A,,Clear,240,2014-01-22 18:35:00
12:55 PM,32.0,2.5,29,30.10,10.0,NW,3.5,-,N/A,,Clear,310,2014-01-22 18:55:00
1:15 PM,33.4,1.0,25,30.09,10.0,West,5.8,-,N/A,,Clear,260,2014-01-22 19:15:00
1:35 PM,34.7,2.1,25,30.09,10.0,Calm,Calm,-,N/A,,Clear,0,2014-01-22 19:35:00
1:55 PM,35.1,1.6,24,30.09,10.0,West,9.2,-,N/A,,Clear,260,2014-01-22 19:55:00
2:15 PM,35.6,2.3,25,30.09,10.0,WSW,8.1,-,N/A,,Clear,250,2014-01-22 20:15:00
2:35 PM,35.1,2.5,25,30.09,10.0,WSW,4.6,-,N/A,,Clear,240,2014-01-22 20:35:00
2:55 PM,36.1,2.8,25,30.08,10.0,WSW,4.6,-,N/A,,Clear,250,2014-01-22 20:55:00
3:15 PM,35.8,2.7,25,30.09,10.0,SW,5.8,-,N/A,,Clear,230,2014-01-22 21:15:00
3:35 PM,35.1,3.0,26,30.09,10.0,SW,4.6,-,N/A,,Clear,220,2014-01-22 21:35:00
3:55 PM,34.9,3.0,26,30.09,7.0,West,5.8,-,N/A,,Clear,260,2014-01-22 21:55:00
4:15 PM,35.4,3.6,26,30.09,10.0,WNW,4.6,-,N/A,,Clear,290,2014-01-22 22:15:00
4:35 PM,35.2,3.6,26,30.10,10.0,West,3.5,-,N/A,,Clear,260,2014-01-22 22:35:00
4:55 PM,33.8,4.1,29,30.11,7.0,Calm,Calm,-,N/A,,Clear,0,2014-01-22 22:55:00
5:15 PM,32.0,5.0,32,30.12,5.0,Calm,Calm,-,N/A,,Haze,0,2014-01-22 23:15:00
5:35 PM,29.8,8.2,40,30.13,7.0,Calm,Calm,-,N/A,,Clear,0,2014-01-22 23:35:00
5:55 PM,28.9,7.5,41,30.13,7.0,Calm,Calm,-,N/A,,Clear,0,2014-01-22 23:55:00
6:15 PM,29.1,7.3,40,30.13,10.0,Calm,Calm,-,N/A,,Clear,0,2014-01-23 00:15:00
6:35 PM,28.2,8.2,43,30.14,10.0,Calm,Calm,-,N/A,,Clear,0,2014-01-23 00:35:00
6:55 PM,28.4,8.1,42,30.15,10.0,Calm,Calm,-,N/A,,Clear,0,2014-01-23 00:55:00
7:15 PM,27.3,8.4,45,30.15,10.0,Calm,Calm,-,N/A,,Clear,0,2014-01-23 01:15:00
7:35 PM,27.1,8.4,45,30.16,10.0,Calm,Calm,-,N/A,,Clear,0,2014-01-23 01:35:00
7:55 PM,26.2,9.5,49,30.16,10.0,Calm,Calm,-,N/A,,Clear,0,2014-01-23 01:55:00
8:15 PM,25.2,10.4,54,30.18,10.0,Calm,Calm,-,N/A,,Clear,0,2014-01-23 02:15:00
8:35 PM,25.0,9.9,53,30.19,10.0,Calm,Calm,-,N/A,,Clear,0,2014-01-23 02:35:00
8:55 PM,26.6,8.4,46,30.19,10.0,Calm,Calm,-,N/A,,Clear,0,2014-01-23 02:55:00
9:15 PM,26.6,9.0,47,30.20,10.0,Calm,Calm,-,N/A,,Clear,0,2014-01-23 03:15:00
9:35 PM,26.2,8.8,48,30.20,10.0,Calm,Calm,-,N/A,,Clear,0,2014-01-23 03:35:00
9:55 PM,23.9,10.2,56,30.20,10.0,Calm,Calm,-,N/A,,Clear,0,2014-01-23 03:55:00
10:15 PM,23.2,10.6,59,30.20,10.0,Calm,Calm,-,N/A,,Clear,0,2014-01-23 04:15:00
10:35 PM,22.5,11.7,63,30.20,10.0,Calm,Calm,-,N/A,,Clear,0,2014-01-23 04:35:00
10:55 PM,21.2,12.0,68,30.20,10.0,Calm,Calm,-,N/A,,Clear,0,2014-01-23 04:55:00
11:15 PM,21.0,12.2,69,30.20,10.0,Calm,Calm,-,N/A,,Clear,0,2014-01-23 05:15:00
11:35 PM,21.0,12.2,69,30.20,10.0,Calm,Calm,-,N/A,,Clear,0,2014-01-23 05:35:00
11:55 PM,21.0,13.6,73,30.20,10.0,Calm,Calm,-,N/A,,Clear,0,2014-01-23 05:55:00